CZ-3C DEB, 40175

Orbit data source: Space-Track

CZ-3C DEB, 40175 is space debris in HEO originally from a launch on Sun, 31 Oct 2010 UTC launched from the Xichang Space Center, China (XSC). Debris objects in space refer to the collection of defunct objects orbiting the Earth. Examples of debris include non-operational satellites, rocket bodies, and fragments generated from explosions, collisions, or faulty payload assembly.

Not visible in the next 10 days
Identifier
40175, 2010-057AD
Orbit
HEO
Country
Flag of CNCN / PRC
Related business
Manufacturer
CALT
Mission
Spacecraft
Bus & Motor
Unknown
Mass
Unknown
Launch date (UTC)
2010-10-31 (15 years ago)
Launch vehicle
Unknown
Launch site
Xichang Space Center, China (XSC)
Object type
Payload
Rocket body
Debris
Shape & HBR
Unknown
Radar Cross Section
Medium (>0.1 m² and <1 m²)

Expand to show TLE details & history
Last TLE update: 1 year ago

TLE from 1 year ago
0 CZ-3C DEB
1 40175U 10057AD  24214.99491461  .00001858  00000-0  83034-2 0  9998
2 40175  19.5903  84.6819 7076990 217.1463  62.1799  2.43332064 93715
Epoch: 2024-08-01T23:52Z
TLE epoch observation values (Epoch: 2024-08-01T23:52:40.622Z)
Latitude
0.00008°
Longitude
135.53148°
Altitude
20,373.486 km
Speed
3.568 km/s
True Right ascension
05h 39m 06s
True Declination
0° 00' 00"
Sunlit
Object was in daylight at epoch
Visualization orbit readout
Latitude
Unknown
Longitude
Unknown
Altitude
Unknown
Speed
Unknown
Apparent Right ascension
Unknown
Apparent Declination
Unknown
Sunlit
N/A
Visualization observer readout
Local Sidereal Time
22:27:07
Azimuth
Unknown
Elevation
Unknown
Doppler factor
Unknown
Orbital elements
Apogee altitude
33,502.607 km
Perigee altitude
448.114 km
Semi-major axis
23,353.497 km
Eccentricity
0.7077
Inclination
19.5903°
RAAN
84.6819°
Arg. of periapsis
217.1463°
True anomaly
142.87065°
Mean anomaly
62.1799°
Eccentric anomaly
101.86216°
Mean motion
0.60816 °/min
Orbital period
591.95 mins
BSTAR
0.0083034
Loading maneuver chart data...
Computing Atmospheric mass density...
Loading historical data...
Loading historical data...
Loading historical data...
Loading historical data...
Loading historical data...
Loading historical data...
Loading historical data...

Documentation

Showing up to 5 results
|